Epoch 2011 June 8.0 TT = JDT 2455720.5
T 2011 June 16.23081 TT                                 MPC
q   2.1225332            (2000.0)            P               Q
n   0.15575169     Peri.    3.33206     +0.71870680     +0.68291849
a   3.4212190      Node   312.67187     -0.64197692     +0.57954586
e   0.3795974      Incl.   10.23962     -0.26706959     +0.44468970
P   6.33
Residuals in seconds of arc
050804 704  1.2+  0.9-    051015 504  0.8-  0.8+    051204 703  1.2+  0.8-
050804 704  0.4-  1.3-    051015 504 (0.1-  2.0+)   051204 442 (2.8+  0.3+)
050804 704  0.2-  1.6-    051015 504  1.0-  0.8+    051204 442 (0.4-  2.1+)
050804 704 (1.4+  2.6-)   051015 504  0.8-  0.7+    051205 442  0.0   1.0+
050804 704  0.1+  1.1+    051015 504  1.0-  1.3+    051205 442  0.7-  0.3-
050816 704  1.9-  0.0     051015 504  0.9-  0.9+    051205 213  0.4-  0.0
050816 704  0.9+  1.8-    051016 I77  0.1+  0.4+    051205 213  0.1+  0.1+
050816 704  0.9+  0.9-    051016 118  0.2-  0.1-    051205 213  1.0+  0.1+
050816 704  1.5+  1.2+    051016 118  0.0   0.1-    051205 939  0.9+  0.1-
050831 704 (1.2-  2.5-)   051016 118  0.6-  0.1+    051205 939  0.7+  0.0
050831 704 (5.0-  0.0 )   051016 I77  0.1+  0.4-    051205 939  0.1+  0.1+
050831 704  0.2-  0.7-    051016 I77  0.5-  0.3+    051206 372  0.6+  1.3+
050831 704  1.4-  1.1+    051019 J97  0.8-  0.4-    051206 442  1.9+  1.2+
050831 704 (1.0+  2.9+)   051019 J97  0.3-  0.1-    051206 442  1.3-  0.3-
050910 699(12.8-  6.8-)   051019 J97  0.1+  0.2-    051206 442  0.8+  1.9-
050910 699(20.0-  9.2-)   051020 673  0.2-  0.6+    051208 372 (1.2+  2.3+)
050910 699(22.5- 10.1-)   051020 673  0.1-  0.5+    051208 442  0.1+  0.5-
050910 A50  0.5-  0.2+    051020 673  0.1-  0.6+    051209 939  1.2-  0.4-
050910 A50  0.6-  0.2+    051020 673  0.2-  0.5+    051209 939  0.5-  0.1-
050910 A50  0.1-  0.1-    051020 619  0.6-  0.6+    051209 939  0.0   0.1+
050910 A50  0.4-  0.3+    051020 619  0.6-  0.3+    051210 H47  0.1-  1.6-
050910 A50  0.4-  0.3+    051020 619  0.0   1.4-    051210 H47 (1.3+  2.0+)
050910 A50  0.4-  0.4+    051020 213  0.5+  0.7+    051210 A50  0.8+  0.4-
050910 232  0.4-  0.0     051020 213  0.1-  0.2+    051210 A50  0.4+  0.4-
050910 232  0.4-  0.2-    051020 213  0.1+  0.6+    051210 A50  0.4+  0.4-
050910 232  0.3-  0.3-    051021 673  0.3-  0.6+    051212 118  0.3-  0.3-
050911 232  0.0   0.3-    051021 673  0.2-  0.6+    051212 118  0.5+  0.3-
050911 232  0.1-  0.4-    051021 673  0.3-  0.5+    051212 118 (2.2+  0.6+)
050911 232  0.2-  0.2-    051021 673  0.5-  0.6+    051213 213  0.8+  0.6-
050911 232  0.1+  0.5-    051021 232  0.1-  0.0     051213 213  0.7+  0.7-
050911 232  0.3-  0.1-    051021 232  0.3-  0.2-    051213 213  0.4+  0.8+
050911 232  0.5-  0.2-    051021 232  0.2-  0.1-    051214 442  0.6+  0.5-
050911 232  0.1-  0.2-    051022 939  0.4-  0.3-    051214 442 (2.3-  1.1+)
050911 232  0.4-  0.2-    051022 939  0.4-  0.6-    051215 442  1.6-  1.8+
050911 232  0.3-  0.1+    051022 939  0.4-  0.9-    051216 J97  1.4+  0.2-
050911 I77  0.3-  0.3-    051023 379  0.3+  0.2+    051216 442  1.6-  1.0+
050911 I77  0.2-  0.5-    051023 379  0.0   0.1+    051216 442  0.9+  0.1-
050911 I77  0.3-  0.4-    051023 379  0.2-  0.0     051216 A32  0.5+  0.0
050911 734  0.0   0.2-    051023 349  0.2-  0.3-    051216 A32  0.2-  0.3-
050911 734  0.6+  0.2-    051023 349  0.2-  0.2-    051217 349  1.5+  0.1-
050911 854  0.4-  0.1+    051023 349  0.4-  0.2-    051217 349  1.2+  0.2+
050911 854  0.5-  0.1+    051023 355  0.1-  0.1+    051217 349  1.4+  0.1-
050911 854  0.4-  0.0     051023 355  0.5-  0.6-    051218 D88  0.5-  0.4-
050911 349  0.2-  0.1+    051023 355  0.3-  0.2-    051218 D88  0.2-  0.4+
050911 349  0.2-  0.0     051023 355  0.4-  0.1-    051218 D88  0.4-  0.1-
050911 349  0.1-  0.3-    051023 J76  0.4-  0.3+    051220 372  0.8+  0.0
050911 349  0.1+  0.1-    051023 J76  0.3-  0.1+    051220 170  1.1+  1.2-
050911 213  0.1-  0.4+    051023 J76  0.1+  0.1+    051220 A32  0.8+  0.0
050911 213  0.1-  0.2+    051024 H47  0.5-  0.2-    051220 A32  0.8+  0.4+
050911 213  0.0   0.4+    051024 H47  1.6-  1.7+    051220 442  0.4+  0.2+
050912 673  0.5+  0.4+    051024 379  0.8-  0.0     051222 619  1.7+  0.0
050912 673  0.3+  0.2+    051024 379  0.6-  0.4+    051222 619  0.9-  0.7-
050912 673  0.4+  0.1+    051024 379  0.7-  0.1-    051222 619 (3.7+  5.6-)
050912 673  0.4+  0.3+    051024 442  1.4+  0.6+    051223 D88  1.0+  0.7-
050912 699 (3.1-  1.2-)   051024 J97  1.1-  1.0-    051223 D88  0.2-  0.5-
050912 699 (5.1-  2.8-)   051024 J97  0.1-  0.4-    051223 D88  0.4-  0.0
050912 699 (5.9-  3.2-)   051024 J97  0.2-  0.3-    051223 170  0.9+  0.2+
050912 699 (6.2-  3.4-)   051024 J97  0.4-  0.7-    051223 939  0.7+  0.1+
050912 D88  0.6+  0.1+    051026 A79  0.2+  0.0     051223 J76  0.0   0.6+
050912 D88  0.6-  0.2+    051026 A79  0.5+  0.3+    051223 J76  0.8+  0.3-
050912 D88  0.2-  0.2-    051026 A79  0.1+  0.8+    051223 J76  0.1+  0.2-
050912 349  0.2-  0.2+    051026 240  0.1-  0.3-    051223 939  0.7+  0.2-
050912 349  0.1-  0.2+    051026 240  0.2-  0.3-    051223 939  1.4+  0.0
050912 349  0.4-  0.2+    051026 240  0.1-  0.4-    051224 H47  0.6+  1.2-
050912 D83  0.3-  0.5-    051026 240  0.1-  0.3-    051224 H47  0.8-  0.3-
050912 D83  1.1-  0.3-    051026 215  0.2-  0.2-    051225 232  0.4+  0.7+
050912 D83  0.0   0.5+    051026 215  0.2-  0.1-    051225 232  0.8+  0.5+
050912 D83  0.6-  0.5-    051026 215  0.2-  0.3-    051225 232 (3.2+  0.5-)
050912 372  0.3-  0.0     051026 A32  0.6+  0.6-    051225 048  0.7+  0.9+
050912 372  0.9-  0.6+    051026 A32  0.5+  0.5-    051225 048  0.3+  0.4+
050912 372  0.6-  0.1+    051026 A32  0.4-  1.1-    051225 048  0.4-  0.5+
050913 204  0.2-  0.1-    051026 A32  0.3+  0.6-    051225 048  0.3+  0.6+
050913 204  0.2-  0.2-    051027 349  0.6-  0.3-    051225 048  0.3+  1.1+
050913 673  0.2-  0.9+    051027 349  0.4-  0.5-    051225 J97 (0.6-  2.2-)
050913 673  0.3-  0.6+    051027 349  0.3-  0.2-    051225 213  0.0   0.1-
050913 673  0.4-  0.7+    051027 D70  0.2+  0.1-    051225 213  0.0   0.0
050913 673  0.2-  0.7+    051027 D70  0.0   0.4-    051227 H47  0.2-  0.6+
050913 673  0.2-  0.6+    051027 D70  0.2+  1.0-    051227 H47  1.3-  1.9-
050913 673  0.3-  0.6+    051027 143  0.2-  0.3-    051227 D88  0.8+  0.0
050914 704  1.9+  1.9-    051027 143  0.2-  0.3-    051227 D88  0.6+  0.2-
050914 704  0.8-  0.5+    051027 143  0.3-  0.4-    051227 D88  1.1+  0.4+
050914 704  1.9-  1.4-    051027 143  0.2-  0.3-    051228 349  0.5+  0.4+
050914 704  0.4-  0.4+    051028 A32  0.7-  0.2-    051228 349  0.4+  0.4+
050914 704 (3.4-  1.8+)   051028 A32  0.5-  0.4-    051228 349  0.3+  0.7+
050914 349  0.1-  0.4-    051028 A32  0.3-  0.2-    051230 D88  0.4+  0.2-
050914 349  0.1+  0.3-    051028 A32  0.1-  0.6-    051230 D88  0.7+  0.2-
050914 349  0.1-  0.1+    051029 A32  0.4-  0.5-    051230 D88  1.0+  0.1-
050914 379  0.4+  0.2-    051029 A32  0.2-  0.6-    051231 349  0.7+  0.2-
050914 379  0.4+  0.3-    051029 A32  0.3-  0.6-    051231 349  0.7+  0.1-
050914 379  0.7+  0.4-    051029 A32  0.1-  0.5-    051231 349  0.5+  0.0
050914 379  0.9+  0.4+    051029 442  0.1-  0.4+    051231 232  0.2-  1.0+
050916 349  0.4-  0.3+    051030 A32  0.4-  0.4-    060101 213  0.6+  0.4+
050916 349  0.3-  0.1+    051030 A32  0.1-  0.2-    060101 442  1.2-  0.2-
050916 349  0.4-  0.2+    051030 A32  0.3-  0.2-    060101 939  0.4+  0.2+
050917 349  0.3-  0.4+    051030 A32  0.2-  0.6-    060101 J76  0.7+  0.5-
050917 349  0.4-  0.5+    051030 644  0.2-  1.2-    060101 939  0.6+  0.0
050917 349  0.3-  0.1+    051030 644  0.4-  1.5-    060101 J76  0.6+  0.1+
050918 349  0.2-  0.8+    051030 H47  0.7+  0.4+    060101 J76  0.4+  0.8+
050918 349  0.2-  0.7+    051030 644  0.9-  0.5-    060101 213  0.0   0.6+
050918 349  0.0   0.8+    051030 H47  0.1+  1.7-    060101 213  0.5+  0.5-
050918 048  0.8-  0.1+    051030 A79  1.1+  0.3-    060101 939  1.2+  0.1+
050918 048  0.5-  0.3+    051030 A79  0.1-  0.0     060101 J97  0.6+  0.4+
050918 048  0.3-  0.2+    051030 A79  0.5+  0.6+    060102 J76  0.2+  0.5+
050918 048  0.4-  0.2-    051030 A18  0.3-  0.1+    060102 J76  0.8+  0.3+
050918 048  1.0-  0.2-    051031 379  0.1+  0.1+    060102 J76  0.5-  0.3-
050918 J97  0.1+  0.1+    051031 379  0.1+  0.5-    060103 939  0.0   0.4-
050918 118  0.0   0.1+    051031 379  0.6+  0.1+    060103 939  0.1+  0.2-
050918 118  0.3+  0.2-    051031 349  0.1-  0.4-    060103 939  0.1+  0.5+
050918 118  0.1-  0.2+    051031 349  0.1-  0.5-    060103 J76  0.2+  0.9+
050919 213  0.2+  0.4+    051031 349  0.0   0.3-    060103 J76  0.3+  0.4+
050919 213  0.3+  0.2+    051031 352  0.2+  0.6-    060103 J76  1.6+  0.1-
050919 213  0.2+  0.2+    051031 352  0.1-  0.5-    060105 704 (2.3-  0.8+)
050920 048  0.6+  0.3+    051031 352  0.1-  0.5-    060105 704  1.2-  0.1+
050920 048  0.0   0.1+    051031 372  1.0-  0.6-    060105 704  1.3+  0.7+
050920 048  0.2+  0.2+    051031 442  0.4-  0.5+    060105 704 (4.2+  0.1+)
050920 048  0.3+  0.2+    051031 A32  0.4-  0.4-    060106 204  0.4+  0.3+
050920 048  0.3+  0.3+    051031 A32  0.2-  0.6-    060106 204  0.1-  0.5+
050921 048  0.1-  0.7+    051031 A32  0.3-  0.5-    060106 204  0.8+  0.0
050921 048  0.3-  0.6+    051031 A32  0.3-  0.2-    060108 118  1.1+  0.2-
050921 048  0.2-  0.4+    051031 A32  0.5-  0.8-    060108 118  0.6+  0.0
050921 048  0.7-  0.3+    051101 939  0.4+  0.6-    060108 118  0.5+  0.0
050921 048  0.4-  0.2+    051101 939  0.1+  0.6-    060108 118  0.3-  0.6+
050922 048  0.1-  0.2+    051101 939  0.1+  0.6-    060110 A77 (1.4+  2.4-)
050922 048  0.3-  0.2+    051101 379  0.4-  0.7+    060110 A77 (1.4-  3.3+)
050922 048  0.2-  0.3+    051101 379  0.2-  0.4-    060111 J97  1.4+  0.1+
050922 048  0.4-  0.2+    051101 379  0.5-  0.3-    060114 232  0.9+  0.7+
050922 048  0.7-  0.5+    051101 379  0.0   0.3+    060114 232  0.2+  0.8+
050922 213  0.0   0.3+    051101 379  0.4-  0.2+    060114 232  1.0-  0.9+
050922 213  0.0   0.4+    051101 J76  0.3-  0.0     060115 A32  0.3+  0.4+
050922 213  0.4-  0.7+    051101 J76  0.1-  0.1+    060118 J97  0.1-  0.4+
050923 048  0.1+  0.1+    051101 J76  0.0   0.1+    060121 918  0.2+  1.0+
050923 048  0.2+  0.4+    051101 213  0.2-  0.2-    060121 918  0.2+  0.6+
050923 048  0.3+  0.2-    051101 213  0.1-  0.4-    060121 918  0.3+  1.1-
050923 048  0.3+  0.2+    051101 213  0.0   0.3+    060121 918  0.6+  0.7-
050923 048  0.1+  0.1+    051101 J97  0.1+  0.4-    060121 918  0.8-  1.1-
050924 048  0.3-  0.0     051101 J97  0.2-  0.3+    060121 442  1.0+  1.4+
050924 048  0.3-  0.3-    051101 J97  0.1+  0.2-    060121 442  0.9+  0.3-
050924 048  0.3+  0.2-    051103 367  0.4+  0.4-    060121 213  0.1+  1.2+
050924 048  0.0   0.0     051103 367  0.2+  0.1-    060121 213  0.3+  1.0+
050924 048  0.5+  0.3-    051103 367  0.1+  0.3-    060121 213  0.7+  0.0
050925 215  0.2-  0.1+    051103 379  0.7-  0.3+    060121 J76  0.8+  1.0-
050925 215  0.1-  0.1+    051103 379  0.6-  0.1+    060121 J76  0.1-  1.1-
050925 215  0.1-  0.0     051103 379  0.6-  0.2-    060121 J76  0.4+  1.2-
050926 372  0.9-  0.3-    051104 850  0.2+  0.9-    060122 349  0.1-  0.4+
050926 372  0.6-  0.7-    051104 850  0.3-  1.0-    060122 349  0.2-  0.4+
050927 213  0.3-  0.6+    051104 850  0.0   0.8-    060122 349  0.3+  0.3+
050927 213  0.0   0.4+    051104 D88  0.1+  0.5-    060122 130  1.3+  0.2+
050927 213  0.2-  0.5+    051104 D88  0.7+  0.2+    060122 130  0.3+  0.1-
050927 J68  1.9-  1.6+    051104 939  0.1+  0.2-    060122 130  1.3+  0.1-
050928 J68  0.4-  0.2-    051104 939  0.1-  0.4-    060123 215  1.5+  0.4+
050928 J68  0.2+  0.6+    051104 939  0.1-  0.6-    060128 D88  0.1+  0.6+
050928 J68  0.1+  0.5+    051105 232  0.6-  1.1-    060128 D88  0.7+  0.7+
050928 J68  0.1-  0.8+    051105 232  0.5+  0.3-    060128 D88  1.2+  0.0
050928 673  0.1+  0.7+    051105 232  0.4-  0.3-    060205 213  0.2+  0.2+
050928 673  0.1+  0.6+    051105 349  0.1+  0.0     060205 213  0.3+  0.6+
050928 673  0.2+  0.6+    051105 349  0.0   0.2-    060212 D88  0.0   0.3-
050928 673  0.1+  0.6+    051105 349  0.1+  0.5-    060212 D88  0.1+  0.2-
050929 703 (2.3-  2.2-)   051105 J97  0.2-  0.4-    060212 D88  0.4+  0.1+
050929 703 (4.0-  3.1-)   051105 J97  0.3-  0.4-    060212 349  1.0+  0.2+
050929 703 (5.2-  3.3-)   051105 J97  0.8-  0.5-    060212 349  1.1+  0.1+
050929 703 (6.4-  4.3-)   051105 J97  0.4-  0.9-    060212 349  1.2+  0.4+
050929 379  0.3+  0.4+    051105 J97  0.0   0.5-    060213 D88  0.3+  0.3+
050929 379  0.2+  0.3+    051105 939  0.2-  0.6-    060213 D88  0.2+  0.3+
050929 379  0.6+  0.1+    051105 939  0.1+  0.4-    060213 D88  0.5+  0.0
050929 379  0.7+  0.1+    051105 939  0.4+  0.3-    060213 J97  0.2-  0.1+
050929 379  0.6+  0.1+    051105 232  0.3-  0.6-    060213 J97  0.5-  0.0
050929 379  0.1+  0.2+    051105 232  0.1+  0.7-    060213 J97  0.2-  0.2+
050929 355  0.5+  0.2+    051105 232  0.3-  0.6-    060216 213  0.3+  0.3+
050929 355  0.3+  0.1+    051105 442  0.5-  0.2-    060216 213  0.5+  0.4+
050929 355  0.2+  0.2+    051106 A01  0.3+  1.2-    060216 213  0.1-  1.0+
050930 H45  0.4+  0.1-    051106 A01  0.4+  1.2-    060217 J97  0.4+  0.6+
050930 H45  0.3+  0.0     051106 A01  0.5+  0.7-    060217 J97  0.3+  0.2-
050930 H45  0.3+  0.0     051106 442  0.6+  0.7-    060217 J97  0.4+  0.4+
050930 H45  0.3+  0.0     051107 372  0.7+  0.4+    060217 J97  0.4+  0.1-
050930 349  0.2+  0.2+    051107 442  0.7+  0.5+    060217 J97  0.0   0.4+
050930 349  0.3+  0.2+    051107 J76  0.1-  0.2-    060217 J97  0.0   0.5+
050930 349  0.2+  0.3+    051107 J76  0.3-  0.1-    060217 J97  0.2+  0.4+
050930 108  0.2+  0.2+    051107 J76  0.2-  0.1+    060217 J79 (2.1+  0.1+)
050930 108  0.2+  0.6-    051107 213  0.6+  0.6-    060217 J79  0.6+  0.2+
050930 108  0.1+  0.8-    051107 213  0.7+  0.1+    060217 J79  0.2-  1.4-
050930 108  0.5+  1.4-    051107 213  0.2-  0.4+    060218 J97  0.5-  0.6+
050930 J97  0.1+  0.0     051108 D88  0.4+  0.1+    060218 J97  0.1+  0.1+
050930 J97  0.1-  0.1-    051108 D88  0.1-  0.6-    060218 J97  0.6+  0.3+
050930 232  0.4+  0.2+    051108 D88  0.6+  0.3-    060218 J76  0.3+  0.3+
050930 232  0.5+  0.1+    051108 372  0.7+  0.8+    060218 J76  0.3+  0.3+
051001 232  0.7+  0.2+    051108 104  0.1-  0.2-    060218 J76  0.3+  0.4+
051001 D88  0.7+  0.1-    051108 104  0.0   0.1+    060218 939  0.4+  0.6+
051001 D88  0.6+  0.1-    051108 104  0.1+  0.1-    060218 939  0.5+  0.7+
051001 D88  0.7+  0.1+    051109 A32  0.2-  0.6-    060218 939  0.7+  0.7+
051001 379  0.3+  0.1-    051109 A32  0.0   0.8-    060219 118  0.5+  0.3+
051001 379  0.3+  0.2-    051109 A32  0.1-  0.6-    060219 118  0.3+  0.2+
051001 355  0.7+  0.0     051109 A32  0.1+  0.5-    060219 118  0.5+  0.5+
051001 379  0.5+  0.4+    051112 H47  0.9-  0.5+    060219 118  0.2+  0.1+
051001 355  0.6+  0.2-    051112 H47  0.8+  0.2+    060219 118  0.4+  0.4+
051001 355  0.5+  0.1+    051117 J67  0.9-  0.1-    060220 704  0.9-  0.4+
051001 379  0.5+  0.3+    051117 J97  0.0   0.6-    060220 704  0.7+  1.3+
051001 355  0.5+  0.1-    051117 J97  0.7-  0.1-    060220 704  0.4+  0.7+
051001 379  0.5+  0.3+    051117 J97  0.2-  0.7-    060220 704  0.8+  0.5+
051001 157  0.4+  0.6+    051117 J97  0.3-  0.2-    060220 704 (3.2+  0.6+)
051001 157  0.4+  0.9+    051118 349  0.2+  0.2-    060221 349  1.2+  0.3+
051001 157  0.1-  0.4+    051118 349  0.2+  0.4-    060221 349  1.0+  0.4+
051001 939  0.2+  0.2+    051118 349  0.1+  0.6-    060221 349  1.0+  0.3+
051001 939  0.2+  0.2+    051118 A32  0.2-  0.1+    060225 232  1.0+  0.3+
051001 939  0.1+  0.1+    051118 A32  0.8-  0.1+    060225 232  1.0+  0.4+
051002 349  0.8+  0.6-    051118 A32  0.6-  0.3+    060225 232  0.8+  0.1+
051002 349  0.8+  0.8-    051118 A32  0.5-  0.1+    060225 213  0.3+  0.2+
051002 349  0.8+  0.7-    051118 A32  0.7-  0.1-    060225 213  1.2+  0.1-
051002 J97  0.0   0.3-    051119 213  0.8-  0.0     060225 213  0.6+  0.3+
051002 A32  0.3+  0.0     051119 213  0.5-  0.3+    060226 H06  0.5+  0.4+
051002 A32  0.4+  0.1+    051119 213  0.6-  0.4+    060226 H06  0.5+  0.4+
051002 A32  0.4+  0.2-    051121 699 (0.6-  5.4-)   060301 J97  0.6+  0.3+
051003 644  0.1+  0.1+    051121 699 (0.5+  3.7-)   060301 J97  0.1+  0.6-
051003 644  0.2+  0.0     051121 699 (1.1+  2.6-)   060301 J97  0.9+  0.1-
051003 644  0.2+  0.2+    051121 699  0.6+  1.6-    060301 J97  0.9+  0.4+
051003 A32  0.1+  0.0     051121 379  0.9-  0.2+    060302 J76  0.1-  0.5+
051003 A32  0.2+  0.1+    051121 379  0.6-  0.2+    060302 J76  0.9+  0.6+
051003 A32  0.1+  0.3+    051121 379  0.6-  0.3-    060302 J76  1.3-  0.3+
051003 A32  0.1+  0.1+    051121 352  0.2+  0.0     060303 703  0.3+  0.6+
051004 118  0.3+  0.1+    051121 352  0.2+  0.4-    060303 703  0.1+  0.2+
051004 118  0.2+  0.1+    051121 352  0.0   0.4-    060303 703  0.2+  0.0
051004 118  0.3+  0.1+    051121 442  0.6-  1.2+    060303 703  0.2+  0.8+
051004 118  0.3+  0.1+    051121 A32  0.0   0.2+    060303 J97  0.1-  1.9+
051004 A70  0.5-  0.1+    051121 A32  0.2-  0.0     060304 349  0.3+  0.2+
051004 A70  0.6+  0.1+    051121 A32  0.1-  0.2+    060304 349  0.3+  0.1+
051004 A70  0.0   0.4+    051121 A32  0.2-  0.2+    060304 349  0.4+  0.0
051004 A70  0.3+  0.4+    051122 703 (2.3-  7.2-)   060306 147  0.3+  0.0
051005 850  0.3+  0.2-    051122 703 (1.2-  6.5-)   060306 147  0.4+  0.2+
051005 850  0.3+  0.2-    051122 703 (1.5-  6.7-)   060306 147  0.8+  0.6+
051005 850  0.2+  0.2-    051122 703 (0.1-  6.4-)   060306 213  0.7+  0.4+
051005 850  0.2+  0.2-    051122 379  0.1-  0.4-    060306 213  0.7+  0.3+
051005 850  0.4+  0.2-    051122 379  0.0   0.3-    060306 213 (2.4+  1.0+)
051006 213  0.1-  0.7+    051122 379  0.1+  0.2+    060308 J97  0.6+  1.0+
051006 213  0.1-  0.6+    051122 379  0.5+  0.1-    060308 J76  0.3+  0.8+
051006 213  0.1-  0.6+    051123 561  0.2-  0.7+    060308 J76  0.5+  0.6+
051006 A32  0.0   0.2+    051123 561  0.7+  0.4+    060308 J76  0.6+  0.4+
051006 A32  0.1-  0.2+    051123 561  0.0   0.5+    060310 J76  0.3+  0.5+
051006 A32  0.1+  0.3+    051124 379  0.2-  0.7-    060310 J76  0.3+  0.6+
051006 A32  0.0   0.3+    051124 379  0.0   0.2+    060310 J76  0.6+  0.7+
051006 A32  0.1-  0.2+    051124 379  0.6-  0.5-    060311 349  0.2-  1.2-
051007 A33  0.0   0.2+    051124 D88  0.3+  0.4+    060311 349  0.7-  1.4-
051007 A33  0.0   0.2+    051124 D88  0.1+  0.1+    060311 349  0.5-  1.6-
051007 442  0.6-  0.4+    051124 D88  0.2+  0.7-    060311 939  0.0   1.3+
051007 442  0.5-  0.4+    051124 442  1.3-  0.1+    060311 939  0.4+  1.2+
051008 232  0.0   0.0     051124 442  1.0+  0.3+    060311 232  1.0+  0.8-
051008 232  0.1-  0.1-    051124 619  0.8-  0.3-    060311 232  1.0+  0.5-
051008 232  0.1+  0.2-    051124 619 (3.2+  0.1-)   060311 232  1.2+  0.0
051008 J76  0.5-  0.0     051124 619 (1.2+  4.4-)   060311 939  0.8+  0.8+
051008 J76  0.4-  0.0     051124 J97  0.9-  0.2-    060311 213  0.7-  0.2+
051008 J76  0.7-  0.1-    051124 J97  0.0   0.4-    060311 213  1.4+  1.3+
051008 A01  0.4-  0.3+    051124 J97  0.2+  0.1-    060315 J97  0.1+  0.2+
051008 A01  0.4-  0.2+    051124 J97  0.5-  0.2-    060319 215  0.1-  0.9+
051009 A01  0.5-  0.3+    051124 J97  0.4-  0.5-    060319 215  0.8+  0.2+
051009 A33  0.0   0.1+    051126 442  0.7+  0.2-    060324 H06  0.3+  0.2+
051009 A33  0.1-  0.0     051126 232  1.2+  0.7-    060324 H06  1.3-  0.5-
051010 I77  0.8-  0.1+    051126 232  1.2+  0.3-    060325 H06  0.6+  0.0
051010 I77  0.1+  0.8+    051126 232  0.1+  0.6-    060325 H06  0.3+  0.3+
051010 I77  0.3-  0.2-    051126 939  0.3+  0.1-    060325 349  1.0-  1.3+
051010 703 (2.8-  3.5-)   051126 939  0.0   0.1-    060325 349  0.9-  1.3+
051010 703 (2.0-  2.6-)   051126 939  0.0   0.2-    060325 349  0.9-  0.9+
051010 703 (1.7-  2.1-)   051127 379  0.5-  0.6+    060325 232  0.2+  0.4-
051010 703  1.3-  1.4-    051127 379  0.1+  0.2+    060325 232  0.2+  0.2-
051010 A32  0.5-  0.1-    051127 379  0.9-  0.4+    060325 232  1.4+  0.1+
051010 A32  0.5-  0.1+    051127 372  0.2-  0.1+    060325 939  0.7+  0.3+
051010 A32  0.3-  0.1+    051127 213  0.3-  0.6+    060325 939  0.6+  0.6+
051010 A32  0.4-  0.1+    051127 213  0.1-  0.1+    060325 939  1.1+  0.7+
051012 379  0.4-  0.3-    051127 213  0.3-  0.6+    060918 704  0.4-  0.1-
051012 379  0.2+  0.4-    051128 704 (1.4+  3.8+)   060918 704 (1.8-  2.1+)
051012 372 (2.0-  0.9+)   051128 704 (2.1-  1.1+)   060918 704  0.1-  0.2+
051012 152  0.3-  1.5-    051128 704  0.8-  1.8-    060918 704  0.5-  1.6+
051012 152  0.6-  0.2+    051128 442  0.0   0.8+    060918 704 (0.7-  2.2+)
051012 152  0.6-  0.4+    051128 J67  0.3+  0.7-    060929 704 (2.2-  0.5+)
051012 152  0.5-  0.4+    051128 J97  0.6-  0.5-    060929 704  0.6-  0.1-
051012 J97  0.1+  0.5+    051128 J97  0.3+  0.1-    060929 704  0.7-  1.7+
051012 A32  0.5-  0.0     051128 J97  0.0   0.2-    061103 850  1.0-  0.4+
051012 A32  0.4-  0.0     051130 442  0.0   0.6-    061103 850  1.0-  1.1+
051012 A32  0.2-  0.1-    051130 442  1.4+  1.9+    061103 850  1.2-  0.8+
051012 A32  0.4-  0.1-    051201 644  0.3+  0.4-    061103 850 (2.1-  1.3+)
051012 A32  0.4-  0.2-    051201 644  0.7+  0.0     061104 850  1.0-  0.0
051013 D88  0.0   0.5-    051201 644  0.5+  0.0     061104 850  1.3-  0.9+
051013 D88  0.5-  0.2-    051201 442  0.5-  0.4+    061118 232 (2.3-  0.6-)
051013 D88  0.6-  0.5-    051202 349  0.4+  1.1-    061118 232  1.9-  0.3+
051014 147  0.2-  0.0     051202 349  0.7+  1.1-    061118 232 (2.4-  0.5-)
051014 147  0.1-  0.0     051202 349  0.8+  0.8-    061122 704  1.0+  0.4+
051014 147  0.2-  0.0     051202 232  1.1+  0.4-    061122 704  0.6+  0.1-
051014 147  0.2-  0.0     051202 232  0.1-  0.8-    061122 704  0.4-  1.0+
051014 147  0.3-  0.2+    051202 232  0.8+  0.1+    061122 704  0.6-  0.8+
051015 J76  0.6-  0.3+    051203 349  0.3+  0.1-    061213 215  1.1-  1.7+
051015 J76  0.4-  0.4+    051203 349  0.5+  0.1+    061215 704  0.7-  1.1+
051015 J76  0.5-  0.5+    051203 D88  0.2+  0.2+    061215 704  1.7-  0.6+
051015 939  0.9-  0.1+    051203 D88  0.4-  0.1+    061215 704 (0.2-  3.2+)
051015 J97  0.3-  0.4-    051203 D88  0.4-  0.2+    061218 704  1.4-  0.1+
051015 J97  0.2-  0.4-    051203 442  1.1-  1.1-    061218 704  0.5-  0.1-
051015 939  0.8-  0.2+    051203 442  0.6-  0.1+    061218 704  1.2-  0.8+
051015 J97  0.4-  0.0     051203 565  0.1+  1.3+    070127 232  0.2+  1.9-
051015 J97  0.2-  0.4-    051203 565  0.1+  1.4+    070127 232  0.4-  1.5-
051015 J97  0.7-  0.3-    051203 939  0.2+  0.2-    070127 232  1.4-  1.3-
051015 504  0.0   1.9+    051203 939  0.3+  0.0     090131 H36  0.5+  0.6-
051015 939  0.7-  0.2+    051203 939  0.2+  0.2+    090131 H36  0.7+  0.3-
051015 504 (0.3-  2.3+)   051204 703  0.3+  0.6+    090201 H36  1.3+  0.8-
051015 J97  0.4-  0.1+    051204 703  0.9+  0.1+    090201 H36  0.3+  1.3-
051015 504 (0.1+  2.2+)   051204 703  0.7+  0.1-

